Time,TemperatureF,DewpointF,PressureIn,WindDirection,WindDirectionDegrees,WindSpeedMPH,WindSpeedGustMPH,Humidity,HourlyPrecipIn,Conditions,Clouds,dailyrainin,SoftwareType,DateUTC
2013-02-08 00:00:00,28.4,26.6,29.78,SE,142,4.0,10.0,93,0.00,,,0.03,Wunderground v.1.15,2013-02-08 05:00:00,
2013-02-08 00:01:00,28.5,26.7,29.78,SSE,153,0.0,10.0,93,0.00,,,0.03,Wunderground v.1.15,2013-02-08 05:01:00,
2013-02-08 00:06:00,28.5,27.0,29.78,SE,131,4.0,5.0,94,0.00,,,0.03,Wunderground v.1.15,2013-02-08 05:06:00,
2013-02-08 00:12:00,28.5,27.0,29.77,SSE,148,5.0,8.0,94,0.00,,,0.00,Wunderground v.1.15,2013-02-08 05:12:00,
2013-02-08 00:18:00,28.5,27.0,29.77,SE,136,0.0,8.0,94,0.00,,,0.00,Wunderground v.1.15,2013-02-08 05:18:00,
2013-02-08 00:23:00,28.6,27.1,29.77,SSW,211,0.0,4.0,94,0.00,,,0.00,Wunderground v.1.15,2013-02-08 05:23:00,
2013-02-08 00:29:00,28.5,27.0,29.76,South,172,7.0,7.0,94,0.00,,,0.00,Wunderground v.1.15,2013-02-08 05:29:00,
2013-02-08 00:34:00,28.5,27.0,29.76,SSE,152,0.0,7.0,94,0.00,,,0.00,Wunderground v.1.15,2013-02-08 05:34:00,
2013-02-08 00:40:00,28.5,27.0,29.76,SSE,153,0.0,12.0,94,0.00,,,0.00,Wunderground v.1.15,2013-02-08 05:40:00,
2013-02-08 00:46:00,28.5,27.0,29.76,SSW,204,1.0,5.0,94,0.00,,,0.00,Wunderground v.1.15,2013-02-08 05:46:00,
2013-02-08 00:51:00,28.5,27.0,29.76,SSE,155,1.0,1.0,94,0.00,,,0.00,Wunderground v.1.15,2013-02-08 05:51:00,
2013-02-08 00:57:00,28.5,27.0,29.75,SSE,161,0.0,6.0,94,0.00,,,0.00,Wunderground v.1.15,2013-02-08 05:57:00,
2013-02-08 01:03:00,28.5,27.0,29.75,SE,140,4.0,4.0,94,0.00,,,0.00,Wunderground v.1.15,2013-02-08 06:03:00,
2013-02-08 01:08:00,28.4,26.9,29.75,SE,144,0.0,4.0,94,0.00,,,0.00,Wunderground v.1.15,2013-02-08 06:08:00,
2013-02-08 01:14:00,28.4,26.9,29.75,SE,140,0.0,8.0,94,0.00,,,0.00,Wunderground v.1.15,2013-02-08 06:14:00,
2013-02-08 01:19:00,28.4,26.9,29.75,SSE,161,0.0,8.0,94,0.00,,,0.00,Wunderground v.1.15,2013-02-08 06:19:00,
2013-02-08 01:25:00,28.3,26.8,29.75,SE,136,4.0,4.0,94,0.00,,,0.00,Wunderground v.1.15,2013-02-08 06:25:00,
2013-02-08 01:30:00,28.3,26.8,29.75,SSE,159,0.0,5.0,94,0.00,,,0.00,Wunderground v.1.15,2013-02-08 06:30:00,
2013-02-08 01:36:00,28.3,27.1,29.75,SE,130,0.0,2.0,95,0.00,,,0.00,Wunderground v.1.15,2013-02-08 06:36:00,
2013-02-08 01:41:00,28.3,27.1,29.74,SE,128,2.0,2.0,95,0.00,,,0.00,Wunderground v.1.15,2013-02-08 06:41:00,
2013-02-08 01:47:00,28.3,27.1,29.74,SE,130,0.0,4.0,95,0.00,,,0.00,Wunderground v.1.15,2013-02-08 06:47:00,
2013-02-08 01:53:00,28.3,27.1,29.74,SE,131,0.0,1.0,95,0.00,,,0.00,Wunderground v.1.15,2013-02-08 06:53:00,
2013-02-08 01:59:00,28.3,27.1,29.73,SE,126,0.0,3.0,95,0.00,,,0.00,Wunderground v.1.15,2013-02-08 06:59:00,
2013-02-08 02:04:00,28.3,27.1,29.73,SE,126,0.0,1.0,95,0.00,,,0.00,Wunderground v.1.15,2013-02-08 07:04:00,
2013-02-08 02:09:00,28.3,27.1,29.73,SE,135,0.0,4.0,95,0.00,,,0.00,Wunderground v.1.15,2013-02-08 07:09:00,
2013-02-08 02:14:00,28.3,27.1,29.73,SSE,149,7.0,7.0,95,0.00,,,0.00,Wunderground v.1.15,2013-02-08 07:14:00,
2013-02-08 02:19:00,28.3,27.1,29.73,SE,130,0.0,7.0,95,0.00,,,0.00,Wunderground v.1.15,2013-02-08 07:19:00,
2013-02-08 02:24:00,28.3,27.1,29.73,SE,125,0.0,7.0,95,0.00,,,0.00,Wunderground v.1.15,2013-02-08 07:24:00,
2013-02-08 02:29:00,28.3,27.1,29.73,SE,128,0.0,7.0,95,0.00,,,0.00,Wunderground v.1.15,2013-02-08 07:29:00,
2013-02-08 02:34:00,28.3,27.1,29.73,SE,128,0.0,2.0,95,0.00,,,0.00,Wunderground v.1.15,2013-02-08 07:34:00,
2013-02-08 02:39:00,28.3,27.1,29.73,SE,133,4.0,6.0,95,0.00,,,0.00,Wunderground v.1.15,2013-02-08 07:39:00,
2013-02-08 02:44:00,28.3,27.1,29.73,SE,126,1.0,1.0,95,0.00,,,0.00,Wunderground v.1.15,2013-02-08 07:44:00,
2013-02-08 02:49:00,28.3,27.1,29.73,SSE,153,0.0,4.0,95,0.00,,,0.00,Wunderground v.1.15,2013-02-08 07:49:00,
2013-02-08 02:54:00,28.3,27.1,29.73,SSE,151,0.0,1.0,95,0.00,,,0.00,Wunderground v.1.15,2013-02-08 07:54:00,
2013-02-08 02:59:00,28.3,27.1,29.73,SSE,150,0.0,3.0,95,0.00,,,0.00,Wunderground v.1.15,2013-02-08 07:59:00,
2013-02-08 03:04:00,28.3,27.1,29.73,SSE,150,0.0,0.0,95,0.00,,,0.00,Wunderground v.1.15,2013-02-08 08:04:00,
2013-02-08 03:09:00,28.2,27.0,29.74,SSE,151,0.0,0.0,95,0.00,,,0.00,Wunderground v.1.15,2013-02-08 08:09:00,
2013-02-08 03:14:00,28.2,27.0,29.74,SSE,151,0.0,0.0,95,0.00,,,0.00,Wunderground v.1.15,2013-02-08 08:14:00,
2013-02-08 03:19:00,28.2,27.0,29.74,SE,137,0.0,2.0,95,0.00,,,0.00,Wunderground v.1.15,2013-02-08 08:19:00,
2013-02-08 03:24:00,28.2,27.0,29.74,SE,138,0.0,0.0,95,0.00,,,0.00,Wunderground v.1.15,2013-02-08 08:24:00,
2013-02-08 03:29:00,28.2,27.0,29.74,ESE,123,0.0,2.0,95,0.00,,,0.00,Wunderground v.1.15,2013-02-08 08:29:00,
2013-02-08 03:34:00,28.2,27.0,29.74,ESE,123,0.0,1.0,95,0.00,,,0.00,Wunderground v.1.15,2013-02-08 08:34:00,
2013-02-08 03:39:00,28.2,27.0,29.73,ESE,109,1.0,4.0,95,0.00,,,0.00,Wunderground v.1.15,2013-02-08 08:39:00,
2013-02-08 03:44:00,28.2,27.0,29.73,ENE,74,0.0,2.0,95,0.00,,,0.00,Wunderground v.1.15,2013-02-08 08:44:00,
2013-02-08 03:49:00,28.1,26.9,29.73,ENE,74,0.0,4.0,95,0.00,,,0.00,Wunderground v.1.15,2013-02-08 08:49:00,
2013-02-08 03:54:00,28.1,26.9,29.73,ENE,72,1.0,2.0,95,0.00,,,0.00,Wunderground v.1.15,2013-02-08 08:54:00,
2013-02-08 04:00:00,28.1,26.9,29.73,NE,55,0.0,5.0,95,0.00,,,0.00,Wunderground v.1.15,2013-02-08 09:00:00,
2013-02-08 04:05:00,28.1,26.9,29.73,NE,56,0.0,5.0,95,0.00,,,0.00,Wunderground v.1.15,2013-02-08 09:05:00,
2013-02-08 04:10:00,28.1,26.9,29.74,ENE,64,0.0,5.0,95,0.00,,,0.00,Wunderground v.1.15,2013-02-08 09:10:00,
2013-02-08 04:15:00,28.1,26.9,29.74,ENE,73,1.0,4.0,95,0.00,,,0.00,Wunderground v.1.15,2013-02-08 09:15:00,
2013-02-08 04:20:00,28.1,26.9,29.74,ENE,75,1.0,4.0,95,0.00,,,0.00,Wunderground v.1.15,2013-02-08 09:20:00,
2013-02-08 04:25:00,28.1,26.9,29.73,NE,51,1.0,6.0,95,0.00,,,0.00,Wunderground v.1.15,2013-02-08 09:25:00,
2013-02-08 04:30:00,28.1,26.9,29.73,ENE,60,1.0,6.0,95,0.00,,,0.00,Wunderground v.1.15,2013-02-08 09:30:00,
2013-02-08 04:35:00,28.1,26.9,29.73,NE,56,0.0,4.0,95,0.00,,,0.00,Wunderground v.1.15,2013-02-08 09:35:00,
2013-02-08 04:40:00,28.1,26.9,29.74,East,86,0.0,4.0,95,0.00,,,0.00,Wunderground v.1.15,2013-02-08 09:40:00,
2013-02-08 04:45:00,28.1,26.9,29.74,East,82,0.0,6.0,95,0.00,,,0.00,Wunderground v.1.15,2013-02-08 09:45:00,
2013-02-08 04:50:00,28.1,26.9,29.74,ENE,57,0.0,6.0,95,0.00,,,0.00,Wunderground v.1.15,2013-02-08 09:50:00,
2013-02-08 04:55:00,28.1,26.9,29.74,ENE,66,0.0,5.0,95,0.00,,,0.00,Wunderground v.1.15,2013-02-08 09:55:00,
2013-02-08 05:00:00,28.0,26.8,29.74,ENE,77,2.0,6.0,95,0.00,,,0.00,Wunderground v.1.15,2013-02-08 10:00:00,
2013-02-08 05:05:00,27.9,26.7,29.74,ENE,71,0.0,5.0,95,0.00,,,0.00,Wunderground v.1.15,2013-02-08 10:05:00,
2013-02-08 05:10:00,27.8,26.6,29.75,NE,53,1.0,7.0,95,0.00,,,0.00,Wunderground v.1.15,2013-02-08 10:10:00,
2013-02-08 05:15:00,27.7,26.5,29.75,East,98,3.0,6.0,95,0.00,,,0.00,Wunderground v.1.15,2013-02-08 10:15:00,
2013-02-08 05:20:00,27.7,26.5,29.75,NE,55,1.0,6.0,95,0.00,,,0.00,Wunderground v.1.15,2013-02-08 10:20:00,
2013-02-08 05:25:00,27.6,26.4,29.76,East,82,1.0,7.0,95,0.00,,,0.00,Wunderground v.1.15,2013-02-08 10:25:00,
2013-02-08 05:30:00,27.6,26.4,29.76,SE,131,7.0,7.0,95,0.00,,,0.00,Wunderground v.1.15,2013-02-08 10:30:00,
2013-02-08 05:35:00,27.5,26.3,29.76,NE,56,2.0,9.0,95,0.00,,,0.00,Wunderground v.1.15,2013-02-08 10:35:00,
2013-02-08 05:41:00,27.5,26.3,29.76,ENE,72,4.0,11.0,95,0.00,,,0.00,Wunderground v.1.15,2013-02-08 10:41:00,
2013-02-08 05:46:00,27.5,26.3,29.76,ESE,107,0.0,7.0,95,0.00,,,0.00,Wunderground v.1.15,2013-02-08 10:46:00,
2013-02-08 05:51:00,27.5,26.3,29.76,NNE,32,0.0,2.0,95,0.00,,,0.00,Wunderground v.1.15,2013-02-08 10:51:00,
2013-02-08 05:56:00,27.6,26.4,29.78,ENE,65,5.0,7.0,95,0.00,,,0.00,Wunderground v.1.15,2013-02-08 10:56:00,
2013-02-08 06:01:00,27.7,26.5,29.78,ENE,68,1.0,7.0,95,0.00,,,0.00,Wunderground v.1.15,2013-02-08 11:01:00,
2013-02-08 06:06:00,27.8,26.6,29.78,ENE,78,4.0,7.0,95,0.00,,,0.00,Wunderground v.1.15,2013-02-08 11:06:00,
2013-02-08 06:11:00,27.8,26.6,29.78,SE,126,7.0,8.0,95,0.00,,,0.00,Wunderground v.1.15,2013-02-08 11:11:00,
2013-02-08 06:16:00,27.8,26.6,29.78,ENE,78,0.0,8.0,95,0.00,,,0.00,Wunderground v.1.15,2013-02-08 11:16:00,
2013-02-08 06:21:00,27.9,26.7,29.78,ENE,74,2.0,8.0,95,0.00,,,0.00,Wunderground v.1.15,2013-02-08 11:21:00,
2013-02-08 06:26:00,27.9,26.7,29.78,ENE,67,3.0,7.0,95,0.00,,,0.00,Wunderground v.1.15,2013-02-08 11:26:00,
2013-02-08 06:31:00,28.0,26.8,29.78,East,91,3.0,8.0,95,0.00,,,0.00,Wunderground v.1.15,2013-02-08 11:31:00,
2013-02-08 06:36:00,28.0,26.8,29.78,NE,55,5.0,6.0,95,0.00,,,0.00,Wunderground v.1.15,2013-02-08 11:36:00,
2013-02-08 06:41:00,27.9,26.7,29.80,East,85,4.0,9.0,95,0.00,,,0.00,Wunderground v.1.15,2013-02-08 11:41:00,
2013-02-08 06:46:00,27.9,26.7,29.80,East,88,0.0,9.0,95,0.00,,,0.00,Wunderground v.1.15,2013-02-08 11:46:00,
2013-02-08 06:51:00,27.8,26.6,29.80,ENE,76,6.0,9.0,95,0.00,,,0.00,Wunderground v.1.15,2013-02-08 11:51:00,
2013-02-08 06:56:00,27.7,26.5,29.81,ENE,70,0.0,11.0,95,0.00,,,0.00,Wunderground v.1.15,2013-02-08 11:56:00,
2013-02-08 07:01:00,27.6,26.4,29.81,East,81,5.0,5.0,95,0.00,,,0.00,Wunderground v.1.15,2013-02-08 12:01:00,
2013-02-08 07:06:00,27.5,26.3,29.81,East,80,4.0,10.0,95,0.00,,,0.00,Wunderground v.1.15,2013-02-08 12:06:00,
2013-02-08 07:11:00,27.4,26.2,29.82,ESE,109,1.0,4.0,95,0.00,,,0.00,Wunderground v.1.15,2013-02-08 12:11:00,
2013-02-08 07:16:00,27.4,26.2,29.82,ESE,103,2.0,5.0,95,0.00,,,0.00,Wunderground v.1.15,2013-02-08 12:16:00,
2013-02-08 07:21:00,27.3,25.8,29.82,ENE,76,2.0,3.0,94,0.00,,,0.00,Wunderground v.1.15,2013-02-08 12:21:00,
2013-02-08 07:26:00,27.3,26.1,29.83,ENE,74,7.0,12.0,95,0.00,,,0.00,Wunderground v.1.15,2013-02-08 12:26:00,
2013-02-08 07:31:00,27.3,26.1,29.83,East,89,1.0,4.0,95,0.00,,,0.00,Wunderground v.1.15,2013-02-08 12:31:00,
2013-02-08 07:36:00,27.3,26.1,29.83,SSE,164,2.0,9.0,95,0.00,,,0.00,Wunderground v.1.15,2013-02-08 12:36:00,
2013-02-08 07:41:00,27.3,25.8,29.84,East,91,0.0,4.0,94,0.00,,,0.00,Wunderground v.1.15,2013-02-08 12:41:00,
2013-02-08 07:46:00,27.4,26.2,29.84,NE,54,6.0,10.0,95,0.00,,,0.00,Wunderground v.1.15,2013-02-08 12:46:00,
2013-02-08 07:51:00,27.3,26.1,29.84,ENE,62,11.0,11.0,95,0.00,,,0.00,Wunderground v.1.15,2013-02-08 12:51:00,
2013-02-08 07:56:00,27.3,25.8,29.85,SE,134,0.0,14.0,94,0.00,,,0.00,Wunderground v.1.15,2013-02-08 12:56:00,
2013-02-08 08:01:00,27.2,25.7,29.85,ENE,64,9.0,18.0,94,0.00,,,0.00,Wunderground v.1.15,2013-02-08 13:01:00,
2013-02-08 08:06:00,27.2,25.7,29.85,East,101,2.0,18.0,94,0.00,,,0.00,Wunderground v.1.15,2013-02-08 13:06:00,
2013-02-08 08:11:00,27.2,25.7,29.86,ENE,74,2.0,7.0,94,0.00,,,0.00,Wunderground v.1.15,2013-02-08 13:11:00,
2013-02-08 08:16:00,27.1,25.6,29.86,ESE,114,4.0,10.0,94,0.00,,,0.00,Wunderground v.1.15,2013-02-08 13:16:00,
2013-02-08 08:21:00,27.1,25.6,29.86,East,99,2.0,8.0,94,0.00,,,0.00,Wunderground v.1.15,2013-02-08 13:21:00,
2013-02-08 08:26:00,27.1,25.6,29.88,ENE,59,5.0,9.0,94,0.00,,,0.00,Wunderground v.1.15,2013-02-08 13:26:00,
2013-02-08 08:31:00,27.1,25.6,29.88,SE,125,6.0,11.0,94,0.00,,,0.00,Wunderground v.1.15,2013-02-08 13:31:00,
2013-02-08 08:36:00,27.2,25.4,29.88,NE,38,6.0,11.0,93,0.00,,,0.00,Wunderground v.1.15,2013-02-08 13:36:00,
2013-02-08 08:41:00,27.2,25.4,29.89,East,79,8.0,9.0,93,0.00,,,0.00,Wunderground v.1.15,2013-02-08 13:41:00,
2013-02-08 08:46:00,27.2,25.4,29.89,East,99,1.0,9.0,93,0.00,,,0.00,Wunderground v.1.15,2013-02-08 13:46:00,
2013-02-08 08:51:00,27.2,25.4,29.89,East,81,5.0,11.0,93,0.00,,,0.00,Wunderground v.1.15,2013-02-08 13:51:00,
2013-02-08 08:56:00,27.2,25.2,29.90,East,87,4.0,14.0,92,0.00,,,0.00,Wunderground v.1.15,2013-02-08 13:56:00,
2013-02-08 09:01:00,27.1,25.1,29.90,NE,52,8.0,8.0,92,0.00,,,0.00,Wunderground v.1.15,2013-02-08 14:01:00,
2013-02-08 09:06:00,27.0,25.0,29.90,SE,124,9.0,14.0,92,0.00,,,0.00,Wunderground v.1.15,2013-02-08 14:06:00,
2013-02-08 09:11:00,26.8,24.5,29.91,NE,35,8.0,13.0,91,0.00,,,0.00,Wunderground v.1.15,2013-02-08 14:11:00,
2013-02-08 09:16:00,26.5,24.0,29.91,ENE,78,7.0,14.0,90,0.00,,,0.00,Wunderground v.1.15,2013-02-08 14:16:00,
2013-02-08 09:21:00,26.3,23.8,29.91,East,95,8.0,22.0,90,0.00,,,0.00,Wunderground v.1.15,2013-02-08 14:21:00,
2013-02-08 09:27:00,26.3,23.8,29.92,ESE,106,5.0,22.0,90,0.00,,,0.00,Wunderground v.1.15,2013-02-08 14:27:00,
2013-02-08 09:32:00,26.1,23.3,29.92,East,97,5.0,8.0,89,0.00,,,0.00,Wunderground v.1.15,2013-02-08 14:32:00,
2013-02-08 09:37:00,26.1,23.3,29.92,East,94,14.0,15.0,89,0.00,,,0.00,Wunderground v.1.15,2013-02-08 14:37:00,
2013-02-08 09:42:00,26.1,23.3,29.93,East,87,5.0,8.0,89,0.00,,,0.00,Wunderground v.1.15,2013-02-08 14:42:00,
2013-02-08 09:47:00,26.1,23.3,29.93,East,86,2.0,16.0,89,0.00,,,0.00,Wunderground v.1.15,2013-02-08 14:47:00,
2013-02-08 09:52:00,26.0,23.2,29.93,NE,44,5.0,12.0,89,0.00,,,0.00,Wunderground v.1.15,2013-02-08 14:52:00,
2013-02-08 09:57:00,25.8,23.0,29.94,East,92,5.0,14.0,89,0.00,,,0.00,Wunderground v.1.15,2013-02-08 14:57:00,
2013-02-08 10:02:00,25.6,22.8,29.94,ESE,105,7.0,13.0,89,0.00,,,0.00,Wunderground v.1.15,2013-02-08 15:02:00,
2013-02-08 10:07:00,25.5,22.7,29.94,East,87,4.0,13.0,89,0.00,,,0.00,Wunderground v.1.15,2013-02-08 15:07:00,
2013-02-08 10:12:00,25.3,22.5,29.96,NE,49,11.0,14.0,89,0.00,,,0.00,Wunderground v.1.15,2013-02-08 15:12:00,
2013-02-08 10:17:00,25.1,22.0,29.96,ENE,64,14.0,14.0,88,0.00,,,0.00,Wunderground v.1.15,2013-02-08 15:17:00,
2013-02-08 10:22:00,25.0,21.9,29.96,ESE,103,8.0,10.0,88,0.00,,,0.00,Wunderground v.1.15,2013-02-08 15:22:00,
2013-02-08 10:27:00,24.9,21.8,29.97,East,80,5.0,14.0,88,0.00,,,0.00,Wunderground v.1.15,2013-02-08 15:27:00,
2013-02-08 10:32:00,24.8,21.8,29.97,ENE,75,8.0,12.0,88,0.00,,,0.00,Wunderground v.1.15,2013-02-08 15:32:00,
2013-02-08 10:37:00,24.7,21.4,29.97,ESE,123,8.0,18.0,87,0.00,,,0.00,Wunderground v.1.15,2013-02-08 15:37:00,
2013-02-08 10:42:00,24.6,21.3,29.99,NE,41,7.0,12.0,87,0.00,,,0.00,Wunderground v.1.15,2013-02-08 15:42:00,
2013-02-08 10:47:00,24.5,21.2,29.99,ENE,63,4.0,15.0,87,0.00,,,0.00,Wunderground v.1.15,2013-02-08 15:47:00,
2013-02-08 10:52:00,24.4,21.1,29.99,ENE,75,9.0,12.0,87,0.00,,,0.00,Wunderground v.1.15,2013-02-08 15:52:00,
2013-02-08 10:57:00,24.5,21.2,30.00,ESE,122,4.0,12.0,87,0.00,,,0.00,Wunderground v.1.15,2013-02-08 15:57:00,
2013-02-08 11:02:00,24.4,20.8,30.00,ENE,76,0.0,15.0,86,0.00,,,0.00,Wunderground v.1.15,2013-02-08 16:02:00,
2013-02-08 11:07:00,24.5,20.9,30.00,ENE,64,6.0,16.0,86,0.00,,,0.00,Wunderground v.1.15,2013-02-08 16:07:00,
2013-02-08 11:13:00,24.5,20.9,30.01,ENE,68,10.0,12.0,86,0.00,,,0.00,Wunderground v.1.15,2013-02-08 16:13:00,
2013-02-08 11:18:00,24.4,20.5,30.01,ESE,121,4.0,15.0,85,0.00,,,0.00,Wunderground v.1.15,2013-02-08 16:18:00,
2013-02-08 11:23:00,24.3,20.4,30.01,ENE,71,7.0,21.0,85,0.00,,,0.00,Wunderground v.1.15,2013-02-08 16:23:00,
2013-02-08 11:28:00,24.3,20.4,30.01,SE,130,5.0,21.0,85,0.00,,,0.00,Wunderground v.1.15,2013-02-08 16:28:00,
2013-02-08 11:33:00,24.5,20.6,30.01,North,355,7.0,11.0,85,0.00,,,0.00,Wunderground v.1.15,2013-02-08 16:33:00,
2013-02-08 11:38:00,24.4,20.3,30.01,ENE,73,1.0,18.0,84,0.00,,,0.00,Wunderground v.1.15,2013-02-08 16:38:00,
2013-02-08 11:43:00,24.2,20.1,30.02,ENE,72,2.0,11.0,84,0.00,,,0.00,Wunderground v.1.15,2013-02-08 16:43:00,
2013-02-08 11:48:00,24.3,20.2,30.02,East,79,8.0,15.0,84,0.00,,,0.00,Wunderground v.1.15,2013-02-08 16:48:00,
2013-02-08 11:53:00,24.3,20.2,30.02,ENE,65,5.0,16.0,84,0.00,,,0.00,Wunderground v.1.15,2013-02-08 16:53:00,
2013-02-08 11:58:00,24.2,19.8,30.03,ENE,78,5.0,16.0,83,0.00,,,0.00,Wunderground v.1.15,2013-02-08 16:58:00,
2013-02-08 12:03:00,24.1,19.7,30.03,East,92,10.0,12.0,83,0.00,,,0.00,Wunderground v.1.15,2013-02-08 17:03:00,
2013-02-08 12:08:00,24.1,19.7,30.03,NE,53,8.0,18.0,83,0.00,,,0.00,Wunderground v.1.15,2013-02-08 17:08:00,
2013-02-08 12:13:00,24.2,19.8,30.04,SSE,165,1.0,18.0,83,0.00,,,0.00,Wunderground v.1.15,2013-02-08 17:13:00,
2013-02-08 12:18:00,23.8,19.1,30.04,ESE,120,9.0,18.0,82,0.00,,,0.00,Wunderground v.1.15,2013-02-08 17:18:00,
2013-02-08 12:23:00,23.9,19.2,30.04,ENE,76,5.0,12.0,82,0.00,,,0.00,Wunderground v.1.15,2013-02-08 17:23:00,
2013-02-08 12:28:00,23.8,19.1,30.05,ENE,72,11.0,12.0,82,0.00,,,0.00,Wunderground v.1.15,2013-02-08 17:28:00,
2013-02-08 12:33:00,23.8,19.1,30.05,ESE,118,5.0,12.0,82,0.00,,,0.00,Wunderground v.1.15,2013-02-08 17:33:00,
2013-02-08 12:38:00,23.9,19.2,30.05,ESE,107,11.0,16.0,82,0.00,,,0.00,Wunderground v.1.15,2013-02-08 17:38:00,
2013-02-08 12:43:00,23.8,19.1,30.06,ENE,74,5.0,13.0,82,0.00,,,0.00,Wunderground v.1.15,2013-02-08 17:43:00,
2013-02-08 12:48:00,23.9,19.2,30.06,ESE,107,2.0,13.0,82,0.00,,,0.00,Wunderground v.1.15,2013-02-08 17:48:00,
2013-02-08 12:53:00,23.9,19.2,30.06,ENE,68,6.0,15.0,82,0.00,,,0.00,Wunderground v.1.15,2013-02-08 17:53:00,
2013-02-08 12:58:00,23.7,19.0,30.06,ENE,57,8.0,15.0,82,0.00,,,0.00,Wunderground v.1.15,2013-02-08 17:58:00,
2013-02-08 13:03:00,23.7,19.0,30.06,NE,51,9.0,13.0,82,0.00,,,0.00,Wunderground v.1.15,2013-02-08 18:03:00,
2013-02-08 13:08:00,23.8,19.1,30.06,ESE,104,8.0,15.0,82,0.00,,,0.00,Wunderground v.1.15,2013-02-08 18:08:00,
2013-02-08 13:13:00,23.9,19.2,30.06,ENE,60,3.0,15.0,82,0.00,,,0.00,Wunderground v.1.15,2013-02-08 18:13:00,
2013-02-08 13:18:00,23.9,19.2,30.06,ENE,71,4.0,15.0,82,0.00,,,0.00,Wunderground v.1.15,2013-02-08 18:18:00,
2013-02-08 13:23:00,24.0,19.3,30.06,NNE,29,0.0,13.0,82,0.00,,,0.00,Wunderground v.1.15,2013-02-08 18:23:00,
2013-02-08 13:29:00,24.2,19.5,30.07,East,82,8.0,13.0,82,0.00,,,0.00,Wunderground v.1.15,2013-02-08 18:29:00,
2013-02-08 13:34:00,24.4,19.7,30.07,ENE,74,2.0,11.0,82,0.00,,,0.00,Wunderground v.1.15,2013-02-08 18:34:00,
2013-02-08 13:39:00,24.5,19.8,30.08,East,86,8.0,11.0,82,0.00,,,0.00,Wunderground v.1.15,2013-02-08 18:39:00,
2013-02-08 13:44:00,24.6,19.9,30.08,East,82,6.0,10.0,82,0.00,,,0.00,Wunderground v.1.15,2013-02-08 18:44:00,
2013-02-08 13:49:00,24.6,19.6,30.08,NNE,32,1.0,10.0,81,0.00,,,0.00,Wunderground v.1.15,2013-02-08 18:49:00,
2013-02-08 13:54:00,24.8,20.1,30.08,ENE,68,0.0,6.0,82,0.00,,,0.00,Wunderground v.1.15,2013-02-08 18:54:00,
2013-02-08 13:59:00,24.8,19.8,30.08,ENE,65,5.0,13.0,81,0.00,,,0.00,Wunderground v.1.15,2013-02-08 18:59:00,
2013-02-08 14:04:00,24.8,19.8,30.08,ENE,58,4.0,10.0,81,0.00,,,0.00,Wunderground v.1.15,2013-02-08 19:04:00,
2013-02-08 14:09:00,24.8,19.8,30.09,NE,49,4.0,14.0,81,0.00,,,0.00,Wunderground v.1.15,2013-02-08 19:09:00,
2013-02-08 14:14:00,24.9,19.9,30.09,ENE,61,2.0,10.0,81,0.00,,,0.00,Wunderground v.1.15,2013-02-08 19:14:00,
2013-02-08 14:19:00,25.1,20.1,30.09,East,91,2.0,10.0,81,0.00,,,0.00,Wunderground v.1.15,2013-02-08 19:19:00,
2013-02-08 14:24:00,25.2,20.2,30.09,ENE,78,1.0,8.0,81,0.00,,,0.00,Wunderground v.1.15,2013-02-08 19:24:00,
2013-02-08 14:29:00,25.4,20.4,30.09,ENE,69,7.0,12.0,81,0.00,,,0.00,Wunderground v.1.15,2013-02-08 19:29:00,
2013-02-08 14:34:00,25.6,20.3,30.09,ENE,64,5.0,11.0,80,0.00,,,0.00,Wunderground v.1.15,2013-02-08 19:34:00,
2013-02-08 14:39:00,25.8,20.5,30.09,ENE,71,0.0,14.0,80,0.00,,,0.00,Wunderground v.1.15,2013-02-08 19:39:00,
2013-02-08 14:44:00,26.1,20.8,30.09,NE,34,10.0,15.0,80,0.00,,,0.00,Wunderground v.1.15,2013-02-08 19:44:00,
2013-02-08 14:49:00,26.3,21.0,30.09,ENE,60,4.0,15.0,80,0.00,,,0.00,Wunderground v.1.15,2013-02-08 19:49:00,
2013-02-08 14:54:00,26.3,20.7,30.08,East,82,2.0,9.0,79,0.00,,,0.00,Wunderground v.1.15,2013-02-08 19:54:00,
2013-02-08 14:59:00,26.3,20.7,30.08,ENE,68,4.0,11.0,79,0.00,,,0.00,Wunderground v.1.15,2013-02-08 19:59:00,
2013-02-08 15:04:00,26.5,20.9,30.08,NE,34,5.0,10.0,79,0.00,,,0.00,Wunderground v.1.15,2013-02-08 20:04:00,
2013-02-08 15:09:00,26.6,20.7,30.09,ENE,64,0.0,14.0,78,0.00,,,0.00,Wunderground v.1.15,2013-02-08 20:09:00,
2013-02-08 15:14:00,26.9,21.0,30.09,ENE,68,4.0,10.0,78,0.00,,,0.00,Wunderground v.1.15,2013-02-08 20:14:00,
2013-02-08 15:19:00,27.2,21.2,30.09,ENE,78,0.0,10.0,78,0.00,,,0.00,Wunderground v.1.15,2013-02-08 20:19:00,
2013-02-08 15:24:00,27.2,20.9,30.09,ENE,59,6.0,11.0,77,0.00,,,0.00,Wunderground v.1.15,2013-02-08 20:24:00,
2013-02-08 15:29:00,27.2,20.9,30.09,ENE,64,7.0,11.0,77,0.00,,,0.00,Wunderground v.1.15,2013-02-08 20:29:00,
2013-02-08 15:34:00,27.0,20.7,30.09,ESE,105,2.0,9.0,77,0.00,,,0.00,Wunderground v.1.15,2013-02-08 20:34:00,
2013-02-08 15:39:00,27.1,20.8,30.09,ENE,70,8.0,9.0,77,0.00,,,0.00,Wunderground v.1.15,2013-02-08 20:39:00,
2013-02-08 15:44:00,27.4,20.5,30.09,ENE,65,2.0,13.0,75,0.00,,,0.00,Wunderground v.1.15,2013-02-08 20:44:00,
2013-02-08 15:49:00,27.7,20.8,30.09,East,94,6.0,19.0,75,0.00,,,0.00,Wunderground v.1.15,2013-02-08 20:49:00,
2013-02-08 15:54:00,27.5,20.3,30.10,North,360,8.0,15.0,74,0.00,,,0.00,Wunderground v.1.15,2013-02-08 20:54:00,
2013-02-08 15:59:00,27.5,20.0,30.10,ENE,68,9.0,15.0,73,0.00,,,0.00,Wunderground v.1.15,2013-02-08 20:59:00,
2013-02-08 16:04:00,27.6,19.8,30.10,SE,132,8.0,13.0,72,0.00,,,0.00,Wunderground v.1.15,2013-02-08 21:04:00,
2013-02-08 16:09:00,27.8,19.6,30.11,ESE,117,3.0,13.0,71,0.00,,,0.00,Wunderground v.1.15,2013-02-08 21:09:00,
2013-02-08 16:14:00,27.9,19.7,30.11,ESE,109,4.0,14.0,71,0.00,,,0.00,Wunderground v.1.15,2013-02-08 21:14:00,
2013-02-08 16:19:00,28.0,19.5,30.11,ENE,60,10.0,14.0,70,0.00,,,0.00,Wunderground v.1.15,2013-02-08 21:19:00,
2013-02-08 16:24:00,28.2,19.7,30.12,NE,37,6.0,13.0,70,0.00,,,0.00,Wunderground v.1.15,2013-02-08 21:24:00,
2013-02-08 16:29:00,28.2,19.7,30.12,ENE,70,4.0,14.0,70,0.00,,,0.00,Wunderground v.1.15,2013-02-08 21:29:00,
2013-02-08 16:34:00,28.3,19.4,30.12,NE,34,11.0,13.0,69,0.00,,,0.00,Wunderground v.1.15,2013-02-08 21:34:00,
2013-02-08 16:39:00,28.5,19.6,30.13,East,82,4.0,13.0,69,0.00,,,0.00,Wunderground v.1.15,2013-02-08 21:39:00,
2013-02-08 16:44:00,28.5,19.6,30.13,ENE,65,4.0,11.0,69,0.00,,,0.00,Wunderground v.1.15,2013-02-08 21:44:00,
2013-02-08 16:49:00,28.6,19.7,30.13,ENE,60,0.0,11.0,69,0.00,,,0.00,Wunderground v.1.15,2013-02-08 21:49:00,
2013-02-08 16:54:00,28.7,19.8,30.14,East,89,1.0,16.0,69,0.00,,,0.00,Wunderground v.1.15,2013-02-08 21:54:00,
2013-02-08 16:59:00,28.5,19.3,30.14,SE,125,8.0,16.0,68,0.00,,,0.00,Wunderground v.1.15,2013-02-08 21:59:00,
2013-02-08 17:05:00,28.4,19.2,30.14,ENE,66,2.0,9.0,68,0.00,,,0.00,Wunderground v.1.15,2013-02-08 22:05:00,
2013-02-08 17:10:00,28.3,19.1,30.15,NNE,25,1.0,13.0,68,0.00,,,0.00,Wunderground v.1.15,2013-02-08 22:10:00,
2013-02-08 17:15:00,28.1,19.2,30.15,ENE,64,0.0,7.0,69,0.00,,,0.00,Wunderground v.1.15,2013-02-08 22:15:00,
2013-02-08 17:20:00,28.1,19.2,30.15,NE,52,0.0,7.0,69,0.00,,,0.00,Wunderground v.1.15,2013-02-08 22:20:00,
2013-02-08 17:25:00,27.9,19.4,30.16,East,101,4.0,8.0,70,0.00,,,0.00,Wunderground v.1.15,2013-02-08 22:25:00,
2013-02-08 17:30:00,27.6,19.1,30.16,NE,51,0.0,8.0,70,0.00,,,0.00,Wunderground v.1.15,2013-02-08 22:30:00,
2013-02-08 17:35:00,27.4,19.2,30.16,ENE,74,0.0,6.0,71,0.00,,,0.00,Wunderground v.1.15,2013-02-08 22:35:00,
2013-02-08 17:40:00,27.2,19.0,30.17,NE,41,6.0,8.0,71,0.00,,,0.00,Wunderground v.1.15,2013-02-08 22:40:00,
2013-02-08 17:45:00,27.0,19.2,30.17,NE,36,0.0,6.0,72,0.00,,,0.00,Wunderground v.1.15,2013-02-08 22:45:00,
2013-02-08 17:50:00,26.9,19.1,30.17,ENE,65,1.0,6.0,72,0.00,,,0.00,Wunderground v.1.15,2013-02-08 22:50:00,
2013-02-08 17:55:00,26.7,18.9,30.18,ENE,65,4.0,8.0,72,0.00,,,0.00,Wunderground v.1.15,2013-02-08 22:55:00,
2013-02-08 18:00:00,26.6,19.1,30.18,ENE,70,0.0,8.0,73,0.00,,,0.00,Wunderground v.1.15,2013-02-08 23:00:00,
2013-02-08 18:05:00,26.5,19.0,30.18,ENE,67,0.0,6.0,73,0.00,,,0.00,Wunderground v.1.15,2013-02-08 23:05:00,
2013-02-08 18:10:00,26.3,18.8,30.18,ENE,61,0.0,8.0,73,0.00,,,0.00,Wunderground v.1.15,2013-02-08 23:10:00,
2013-02-08 18:15:00,26.1,18.6,30.18,ENE,64,1.0,5.0,73,0.00,,,0.00,Wunderground v.1.15,2013-02-08 23:15:00,
2013-02-08 18:20:00,26.0,18.5,30.18,ENE,72,0.0,5.0,73,0.00,,,0.00,Wunderground v.1.15,2013-02-08 23:20:00,
2013-02-08 18:25:00,25.8,18.7,30.19,ENE,58,0.0,6.0,74,0.00,,,0.00,Wunderground v.1.15,2013-02-08 23:25:00,
2013-02-08 18:30:00,25.6,18.5,30.19,ENE,68,0.0,6.0,74,0.00,,,0.00,Wunderground v.1.15,2013-02-08 23:30:00,
2013-02-08 18:35:00,25.4,18.6,30.19,ENE,60,4.0,4.0,75,0.00,,,0.00,Wunderground v.1.15,2013-02-08 23:35:00,
2013-02-08 18:40:00,25.2,18.4,30.20,ENE,59,0.0,5.0,75,0.00,,,0.00,Wunderground v.1.15,2013-02-08 23:40:00,
2013-02-08 18:45:00,25.1,18.3,30.20,NE,53,0.0,7.0,75,0.00,,,0.00,Wunderground v.1.15,2013-02-08 23:45:00,
2013-02-08 18:50:00,24.9,18.4,30.20,NE,53,0.0,7.0,76,0.00,,,0.00,Wunderground v.1.15,2013-02-08 23:50:00,
2013-02-08 18:55:00,24.7,18.2,30.20,NE,55,0.0,5.0,76,0.00,,,0.00,Wunderground v.1.15,2013-02-08 23:55:00,
2013-02-08 19:00:00,24.5,18.0,30.20,ENE,68,1.0,6.0,76,0.00,,,0.00,Wunderground v.1.15,2013-02-09 00:00:00,
2013-02-08 19:05:00,24.3,18.1,30.20,ENE,69,0.0,7.0,77,0.00,,,0.00,Wunderground v.1.15,2013-02-09 00:05:00,
2013-02-08 19:10:00,24.3,17.8,30.21,ENE,69,0.0,7.0,76,0.00,,,0.00,Wunderground v.1.15,2013-02-09 00:10:00,
2013-02-08 19:15:00,24.2,17.7,30.21,ENE,62,0.0,6.0,76,0.00,,,0.00,Wunderground v.1.15,2013-02-09 00:15:00,
2013-02-08 19:20:00,24.1,17.6,30.21,NE,55,2.0,6.0,76,0.00,,,0.00,Wunderground v.1.15,2013-02-09 00:20:00,
2013-02-08 19:25:00,23.9,17.4,30.21,ENE,65,0.0,5.0,76,0.00,,,0.00,Wunderground v.1.15,2013-02-09 00:25:00,
2013-02-08 19:30:00,23.8,17.3,30.21,ENE,68,0.0,5.0,76,0.00,,,0.00,Wunderground v.1.15,2013-02-09 00:30:00,
2013-02-08 19:35:00,23.7,17.2,30.21,ENE,68,2.0,2.0,76,0.00,,,0.00,Wunderground v.1.15,2013-02-09 00:35:00,
2013-02-08 19:41:00,23.5,17.0,30.22,ENE,60,0.0,1.0,76,0.00,,,0.00,Wunderground v.1.15,2013-02-09 00:41:00,
2013-02-08 19:46:00,23.4,16.9,30.22,NNE,22,2.0,4.0,76,0.00,,,0.00,Wunderground v.1.15,2013-02-09 00:46:00,
2013-02-08 19:51:00,23.3,16.9,30.22,NNE,26,0.0,0.0,76,0.00,,,0.00,Wunderground v.1.15,2013-02-09 00:51:00,
2013-02-08 19:56:00,23.1,16.7,30.23,NNE,26,0.0,1.0,76,0.00,,,0.00,Wunderground v.1.15,2013-02-09 00:56:00,
2013-02-08 20:01:00,22.9,16.5,30.23,NNE,26,0.0,0.0,76,0.00,,,0.00,Wunderground v.1.15,2013-02-09 01:01:00,
2013-02-08 20:06:00,22.7,16.6,30.23,NNE,26,0.0,1.0,77,0.00,,,0.00,Wunderground v.1.15,2013-02-09 01:06:00,
2013-02-08 20:11:00,22.5,16.4,30.24,NNE,26,0.0,0.0,77,0.00,,,0.00,Wunderground v.1.15,2013-02-09 01:11:00,
2013-02-08 20:16:00,22.3,16.5,30.24,NNE,26,0.0,2.0,78,0.00,,,0.00,Wunderground v.1.15,2013-02-09 01:16:00,
2013-02-08 20:21:00,22.2,16.4,30.24,NNE,26,0.0,0.0,78,0.00,,,0.00,Wunderground v.1.15,2013-02-09 01:21:00,
2013-02-08 20:26:00,22.0,16.2,30.25,NNE,26,1.0,2.0,78,0.00,,,0.00,Wunderground v.1.15,2013-02-09 01:26:00,
2013-02-08 20:31:00,21.9,16.1,30.25,NNE,26,0.0,0.0,78,0.00,,,0.00,Wunderground v.1.15,2013-02-09 01:31:00,
2013-02-08 20:36:00,21.7,15.9,30.25,NNE,26,0.0,1.0,78,0.00,,,0.00,Wunderground v.1.15,2013-02-09 01:36:00,
2013-02-08 20:41:00,21.6,15.8,30.25,NNE,26,0.0,0.0,78,0.00,,,0.00,Wunderground v.1.15,2013-02-09 01:41:00,
2013-02-08 20:46:00,21.3,15.8,30.25,NNE,26,0.0,0.0,79,0.00,,,0.00,Wunderground v.1.15,2013-02-09 01:46:00,
2013-02-08 20:51:00,21.1,15.6,30.25,NNE,26,0.0,0.0,79,0.00,,,0.00,Wunderground v.1.15,2013-02-09 01:51:00,
2013-02-08 20:56:00,20.9,15.7,30.26,NNE,26,0.0,1.0,80,0.00,,,0.00,Wunderground v.1.15,2013-02-09 01:56:00,
2013-02-08 21:01:00,20.7,15.5,30.26,NNE,26,0.0,0.0,80,0.00,,,0.00,Wunderground v.1.15,2013-02-09 02:01:00,
2013-02-08 21:06:00,20.5,15.6,30.26,NNE,26,0.0,0.0,81,0.00,,,0.00,Wunderground v.1.15,2013-02-09 02:06:00,
2013-02-08 21:11:00,20.3,15.4,30.26,NNE,26,0.0,0.0,81,0.00,,,0.00,Wunderground v.1.15,2013-02-09 02:11:00,
2013-02-08 21:16:00,20.3,15.4,30.26,NNE,26,0.0,0.0,81,0.00,,,0.00,Wunderground v.1.15,2013-02-09 02:16:00,
2013-02-08 21:21:00,20.2,15.3,30.26,NNE,26,0.0,1.0,81,0.00,,,0.00,Wunderground v.1.15,2013-02-09 02:21:00,
2013-02-08 21:26:00,20.0,15.4,30.27,NNE,26,0.0,1.0,82,0.00,,,0.00,Wunderground v.1.15,2013-02-09 02:26:00,
2013-02-08 21:31:00,19.8,15.2,30.27,NNE,26,0.0,1.0,82,0.00,,,0.00,Wunderground v.1.15,2013-02-09 02:31:00,
2013-02-08 21:36:00,19.6,15.0,30.27,NNE,26,0.0,3.0,82,0.00,,,0.00,Wunderground v.1.15,2013-02-09 02:36:00,
2013-02-08 21:41:00,19.6,15.3,30.28,NNE,26,0.0,0.0,83,0.00,,,0.00,Wunderground v.1.15,2013-02-09 02:41:00,
2013-02-08 21:46:00,19.5,15.2,30.28,NNE,26,0.0,1.0,83,0.00,,,0.00,Wunderground v.1.15,2013-02-09 02:46:00,
2013-02-08 21:51:00,19.4,15.1,30.28,NNE,26,1.0,1.0,83,0.00,,,0.00,Wunderground v.1.15,2013-02-09 02:51:00,
2013-02-08 21:56:00,19.2,15.2,30.28,NNE,26,0.0,2.0,84,0.00,,,0.00,Wunderground v.1.15,2013-02-09 02:56:00,
2013-02-08 22:01:00,19.1,15.1,30.28,NNE,26,0.0,0.0,84,0.00,,,0.00,Wunderground v.1.15,2013-02-09 03:01:00,
2013-02-08 22:06:00,18.8,14.8,30.28,NNE,26,0.0,0.0,84,0.00,,,0.00,Wunderground v.1.15,2013-02-09 03:06:00,
2013-02-08 22:11:00,18.6,14.6,30.29,NNE,26,0.0,5.0,84,0.00,,,0.00,Wunderground v.1.15,2013-02-09 03:11:00,
2013-02-08 22:16:00,18.7,14.9,30.29,East,94,0.0,5.0,85,0.00,,,0.00,Wunderground v.1.15,2013-02-09 03:16:00,
2013-02-08 22:21:00,18.7,14.9,30.29,East,94,0.0,1.0,85,0.00,,,0.00,Wunderground v.1.15,2013-02-09 03:21:00,
2013-02-08 22:26:00,18.5,14.7,30.29,East,94,0.0,1.0,85,0.00,,,0.00,Wunderground v.1.15,2013-02-09 03:26:00,
2013-02-08 22:31:00,18.2,14.4,30.29,East,94,0.0,1.0,85,0.00,,,0.00,Wunderground v.1.15,2013-02-09 03:31:00,
2013-02-08 22:36:00,18.1,14.4,30.29,East,92,0.0,4.0,85,0.00,,,0.00,Wunderground v.1.15,2013-02-09 03:36:00,
2013-02-08 22:42:00,18.1,14.6,30.30,East,89,0.0,1.0,86,0.00,,,0.00,Wunderground v.1.15,2013-02-09 03:42:00,
2013-02-08 22:47:00,18.0,14.5,30.30,East,89,0.0,1.0,86,0.00,,,0.00,Wunderground v.1.15,2013-02-09 03:47:00,
2013-02-08 22:52:00,17.9,14.4,30.30,East,89,0.0,0.0,86,0.00,,,0.00,Wunderground v.1.15,2013-02-09 03:52:00,
2013-02-08 22:57:00,17.7,14.5,30.30,East,89,1.0,1.0,87,0.00,,,0.00,Wunderground v.1.15,2013-02-09 03:57:00,
2013-02-08 23:02:00,17.7,14.5,30.30,East,89,0.0,0.0,87,0.00,,,0.00,Wunderground v.1.15,2013-02-09 04:02:00,
2013-02-08 23:07:00,17.6,14.4,30.30,East,89,0.0,3.0,87,0.00,,,0.00,Wunderground v.1.15,2013-02-09 04:07:00,
2013-02-08 23:12:00,17.5,14.3,30.31,East,89,0.0,2.0,87,0.00,,,0.00,Wunderground v.1.15,2013-02-09 04:12:00,
2013-02-08 23:17:00,17.6,14.7,30.31,East,89,0.0,2.0,88,0.00,,,0.00,Wunderground v.1.15,2013-02-09 04:17:00,
2013-02-08 23:22:00,17.6,14.7,30.31,East,89,0.0,0.0,88,0.00,,,0.00,Wunderground v.1.15,2013-02-09 04:22:00,
2013-02-08 23:27:00,17.5,14.6,30.31,East,89,0.0,0.0,88,0.00,,,0.00,Wunderground v.1.15,2013-02-09 04:27:00,
2013-02-08 23:32:00,17.3,14.4,30.31,East,88,0.0,0.0,88,0.00,,,0.00,Wunderground v.1.15,2013-02-09 04:32:00,
2013-02-08 23:37:00,17.2,14.3,30.31,East,88,0.0,0.0,88,0.00,,,0.00,Wunderground v.1.15,2013-02-09 04:37:00,
2013-02-08 23:42:00,17.1,14.2,30.32,East,89,0.0,0.0,88,0.00,,,0.00,Wunderground v.1.15,2013-02-09 04:42:00,
2013-02-08 23:47:00,16.9,14.0,30.32,East,88,0.0,0.0,88,0.00,,,0.00,Wunderground v.1.15,2013-02-09 04:47:00,
2013-02-08 23:52:00,16.7,13.8,30.32,East,89,0.0,0.0,88,0.00,,,0.00,Wunderground v.1.15,2013-02-09 04:52:00,
2013-02-08 23:57:00,16.4,13.5,30.32,East,89,0.0,1.0,88,0.00,,,0.00,Wunderground v.1.15,2013-02-09 04:57:00,